カタログに戻る

FENGYUN 1C DEB

LostPO
NORAD 38807·DEBRIS·🇨🇳 China

打ち上げ May 10, 1999 から Taiyuan Satellite Launch Center

Loading…

次のパス (今後24時間)

TLE

古いSource: Space-Track

元期: Apr 6, 2024, 06:08 UTC

1 38807U 99025EUX 24097.25564211  .00004205  00000-0  36634-2 0  9994
2 38807  98.4463 109.1760 0223596 353.8460   5.9955 13.75617858493574

AllMySatでFENGYUN 1C DEBをリアルタイム追跡

Download on the App Store